period_start,C,m1,H,J0,J1,J2,J3,J4,J5,JA,JB,JC,JD,JJ,JK,JN,#
2015-04-11 00:03:36,0.13,1.71,0.00,23.48,27.20,29.95,4.84,27.25,1030.37,2031.99,2770.99,2846.22,3076.60,349.79,351.82,12.61,0000 0000 0000 0000 000000
2015-04-11 00:08:37,0.13,1.71,0.00,23.75,27.20,29.62,4.85,27.11,1030.31,2031.99,2769.58,2845.27,3075.57,350.12,352.11,12.64,0000 0000 0000 0000 000000
2015-04-11 00:13:38,0.13,1.72,0.00,23.70,27.18,29.63,4.84,27.25,1030.31,2031.99,2768.13,2844.26,3074.40,350.30,351.78,12.67,0000 0000 0000 0000 000000
2015-04-11 00:18:39,0.13,1.72,0.00,23.63,27.17,29.74,4.83,27.15,1030.32,2031.99,2766.80,2843.36,3073.37,349.81,351.39,12.70,0000 0000 0000 0000 000000
2015-04-11 00:23:41,0.12,1.72,0.00,23.81,27.17,29.79,4.83,27.32,1030.31,2031.99,2765.46,2842.49,3072.41,349.56,350.80,12.72,0000 0000 0000 0000 000000
2015-04-11 00:28:42,0.14,1.73,0.00,23.86,27.17,29.78,4.86,27.39,1030.30,2031.99,2763.90,2841.39,3071.34,350.38,351.54,12.75,0000 0000 0000 0000 000000
2015-04-11 00:33:43,0.12,1.73,0.00,24.41,27.20,29.87,4.79,27.33,1030.30,2031.99,2762.56,2840.41,3070.28,349.83,350.56,12.78,0000 0000 0000 0000 000000
2015-04-11 00:38:45,0.16,1.74,0.00,24.36,27.21,29.97,4.79,27.20,1030.29,2031.99,2760.89,2839.30,3069.02,350.11,350.88,12.81,0000 0000 0000 0000 000000
2015-04-11 00:43:46,0.14,1.74,0.00,23.80,27.22,30.08,4.79,27.07,1030.29,2031.99,2759.28,2838.22,3067.82,349.96,351.15,12.84,0000 0000 0000 0000 000000
2015-04-11 00:48:47,0.14,1.74,0.00,23.57,27.22,29.89,4.79,27.28,1030.29,2031.98,2757.66,2837.21,3066.76,349.89,351.44,12.87,0000 0000 0000 0000 000000
2015-04-11 00:53:48,0.12,1.75,0.00,23.89,27.22,29.62,4.75,27.05,1030.29,2031.99,2756.35,2836.31,3065.77,349.86,351.22,12.90,0000 0000 0000 0000 000000
2015-04-11 00:58:50,0.13,1.75,0.00,23.90,27.22,29.74,4.82,27.11,1030.29,2031.99,2754.91,2835.41,3064.78,350.16,351.39,12.93,0000 0000 0000 0000 000000
2015-04-11 01:03:51,0.13,1.75,0.00,23.81,27.22,29.83,4.76,27.23,1030.28,2031.99,2753.54,2834.43,3063.81,349.67,351.26,12.96,0000 0000 0000 0000 000000
2015-04-11 01:08:52,0.12,1.76,0.00,24.10,27.22,29.82,4.79,27.38,1030.27,2031.99,2752.25,2833.55,3062.77,349.70,350.68,12.99,0000 0000 0000 0000 000000
2015-04-11 01:13:54,0.13,1.76,0.00,24.56,27.22,29.89,4.79,27.07,1030.13,2031.99,2751.00,2832.51,3061.63,350.00,350.46,13.02,0000 0000 0000 0000 000000
2015-04-11 01:18:55,0.14,1.77,0.00,24.14,27.23,30.02,4.76,27.12,1029.89,2031.98,2749.66,2831.54,3060.55,349.94,350.98,13.05,0000 0000 0000 0000 000000
2015-04-11 01:23:56,0.11,1.77,0.00,23.75,27.24,30.00,4.76,27.09,1029.98,2031.99,2748.22,2830.69,3059.59,349.94,351.37,13.08,0000 0000 0000 0000 000000
2015-04-11 01:28:57,0.10,1.77,0.00,23.84,27.23,29.68,4.84,27.18,1029.94,2031.99,2746.92,2829.88,3058.69,350.46,351.62,13.11,0000 0000 0000 0000 000000
2015-04-11 01:33:58,0.10,1.78,0.00,24.06,27.22,29.61,4.89,27.13,1029.85,2031.99,2745.80,2829.06,3057.83,350.13,350.84,13.13,0000 0000 0000 0000 000000
2015-04-11 01:38:59,0.13,1.78,0.00,23.90,27.22,29.68,4.81,27.60,1029.81,2031.99,2744.50,2828.17,3056.85,349.96,351.00,13.16,0000 0000 0000 0000 000000
2015-04-11 01:44:01,0.12,1.78,0.00,24.31,27.22,29.79,4.80,27.40,1029.80,2031.99,2743.24,2827.29,3055.88,349.91,350.38,13.19,0000 0000 0000 0000 000000
2015-04-11 01:49:02,0.13,1.79,0.00,24.64,27.22,29.84,4.82,27.13,1029.80,2031.99,2741.86,2826.32,3054.80,350.16,350.43,13.22,0000 0000 0000 0000 000000
2015-04-11 01:54:03,0.13,1.79,0.00,24.15,27.22,29.96,4.78,27.17,1029.80,2031.99,2740.48,2825.36,3053.74,350.07,350.77,13.25,0000 0000 0000 0000 000000
2015-04-11 01:59:05,0.12,1.80,0.00,23.78,27.22,29.91,4.79,27.38,1029.80,2031.99,2739.10,2824.44,3052.77,349.52,350.74,13.28,0000 0000 0000 0000 000000
2015-04-11 02:04:06,0.10,1.80,0.00,23.89,27.22,29.56,4.81,27.28,1029.79,2031.99,2737.79,2823.73,3051.89,349.78,351.07,13.31,0000 0000 0000 0000 000000
2015-04-11 02:09:07,0.08,1.80,0.00,24.19,27.21,29.53,4.81,27.23,1029.75,2031.99,2736.69,2822.99,3051.02,350.09,350.67,13.34,0000 0000 0000 0000 000000
2015-04-11 02:14:08,0.12,1.81,0.00,24.20,27.20,29.70,4.75,27.21,1029.65,2031.99,2735.52,2822.14,3050.17,349.81,350.59,13.37,0000 0000 0000 0000 000000
2015-04-11 02:19:09,0.13,1.81,0.00,24.68,27.20,29.77,4.81,27.24,1029.48,2031.99,2734.08,2821.23,3049.18,349.95,349.94,13.40,0000 0000 0000 0000 000000
2015-04-11 02:24:10,0.13,1.81,0.00,24.40,27.20,29.82,4.86,27.27,1029.39,2031.99,2732.73,2820.24,3048.13,350.99,351.33,13.43,0000 0000 0000 0000 000000
2015-04-11 02:29:12,0.13,1.82,0.00,23.97,27.20,29.86,4.81,27.14,1029.32,2031.99,2731.35,2819.37,3047.26,350.20,351.12,13.46,0000 0000 0000 0000 000000
2015-04-11 02:34:13,0.12,1.82,0.00,23.80,27.19,29.68,4.84,27.09,1029.33,2031.99,2729.93,2818.60,3046.24,349.64,350.81,13.49,0000 0000 0000 0000 000000
2015-04-11 02:39:14,0.13,1.82,0.00,24.11,27.17,29.48,4.72,27.04,1029.32,2031.99,2728.55,2817.72,3045.36,349.41,350.13,13.52,0000 0000 0000 0000 000000
2015-04-11 02:44:15,0.09,1.83,0.00,24.15,27.16,29.60,4.85,27.12,1029.32,2032.04,2727.56,2817.00,3044.63,349.92,350.73,13.54,0000 0000 0000 0000 000000
2015-04-11 02:49:17,0.12,1.83,0.00,24.61,27.15,29.67,4.79,27.23,1029.31,2032.06,2726.31,2816.15,3043.73,350.08,350.24,13.57,0000 0000 0000 0000 000000
2015-04-11 02:54:18,0.13,1.84,0.00,24.73,27.16,29.71,4.76,27.12,1029.31,2032.06,2725.02,2815.38,3042.71,350.28,350.46,13.60,0000 0000 0000 0000 000000
2015-04-11 02:59:19,0.13,1.84,0.00,24.24,27.17,29.83,4.80,27.17,1029.31,2032.04,2723.59,2814.48,3041.59,349.85,350.41,13.63,0000 0000 0000 0000 000000
2015-04-11 03:04:21,0.12,1.84,0.00,23.97,27.15,29.81,4.77,27.47,1029.23,2032.06,2722.25,2813.60,3040.67,349.74,350.70,13.66,0000 0000 0000 0000 000000
2015-04-11 03:09:22,0.12,1.85,0.00,23.96,27.15,29.68,4.79,27.48,1028.98,2032.09,2720.74,2812.72,3039.87,349.87,350.59,13.69,0000 0000 0000 0000 000000
2015-04-11 03:14:23,0.16,1.85,0.00,24.33,27.14,29.60,4.77,27.45,1028.89,2032.37,2719.43,2811.91,3038.92,349.60,349.88,13.72,0000 0000 0000 0000 000000
2015-04-11 03:19:24,0.17,1.86,0.00,24.64,27.12,29.65,4.72,27.54,1028.84,2032.85,2718.32,2811.07,3037.94,349.92,349.96,13.75,0000 0000 0000 0000 000000
2015-04-11 03:24:26,0.11,1.86,0.00,24.81,27.12,29.70,4.74,27.30,1028.88,2032.88,2717.39,2810.32,3036.95,349.87,349.47,13.78,0000 0000 0000 0000 000000
2015-04-11 03:29:27,0.10,1.86,0.00,24.46,27.12,29.72,4.76,27.15,1028.97,2032.78,2716.05,2809.49,3036.00,349.92,350.11,13.81,0000 0000 0000 0000 000000
2015-04-11 03:34:28,0.15,1.87,0.00,24.11,27.12,29.78,4.78,27.39,1028.86,2032.76,2714.49,2808.53,3035.05,349.62,350.20,13.84,0000 0000 0000 0000 000000
2015-04-11 03:39:30,0.12,1.87,0.00,23.96,27.11,29.66,4.73,27.23,1028.84,2032.94,2713.23,2807.77,3034.20,348.68,349.47,13.87,0000 0000 0000 0000 000000
2015-04-11 03:44:31,0.11,1.88,0.00,23.98,27.10,29.57,4.76,27.14,1028.83,2032.96,2712.03,2807.01,3033.21,349.46,350.17,13.90,0000 0000 0000 0000 000000
2015-04-11 03:49:32,0.12,1.88,0.00,24.29,27.07,29.45,4.83,27.18,1028.79,2032.99,2710.70,2806.15,3032.64,349.65,349.94,13.93,0000 0000 0000 0000 000000
2015-04-11 03:54:34,0.09,1.88,0.00,24.54,27.07,29.53,4.79,27.47,1028.68,2032.99,2709.75,2805.56,3031.80,350.41,350.44,13.96,0000 0000 0000 0000 000000
2015-04-11 03:59:35,0.13,1.89,0.00,24.89,27.07,29.60,4.85,27.61,1028.48,2032.99,2708.45,2804.61,3030.80,350.05,349.68,13.98,0000 0000 0000 0000 000000
2015-04-11 04:04:37,0.09,1.89,0.00,24.48,27.06,29.64,4.85,27.57,1028.47,2032.99,2707.00,2803.81,3029.91,350.13,350.22,14.01,0000 0000 0000 0000 000000
2015-04-11 04:09:38,0.12,1.89,0.00,24.15,27.05,29.69,4.79,27.33,1028.61,2032.99,2705.71,2802.96,3028.96,349.53,350.02,14.04,0000 0000 0000 0000 000000
2015-04-11 04:14:39,0.12,1.90,0.00,24.03,27.05,29.67,4.80,27.16,1028.39,2032.99,2704.56,2802.10,3028.04,349.20,349.79,14.07,0000 0000 0000 0000 000000
2015-04-11 04:19:40,0.12,1.90,0.00,23.97,27.03,29.63,4.84,27.26,1028.35,2033.00,2703.57,2801.35,3027.14,349.88,350.52,14.10,0000 0000 0000 0000 000000
2015-04-11 04:24:42,0.11,1.90,0.00,24.13,27.02,29.55,4.80,27.26,1028.34,2033.00,2702.22,2800.66,3026.26,350.30,350.77,14.13,0000 0000 0000 0000 000000
2015-04-11 04:29:43,0.11,1.91,0.00,24.60,27.00,29.50,4.78,27.35,1028.34,2033.01,2700.94,2799.83,3025.52,349.53,349.20,14.16,0000 0000 0000 0000 000000
2015-04-11 04:34:44,0.12,1.91,0.00,24.81,27.00,29.51,4.77,27.35,1028.34,2033.04,2699.74,2798.98,3024.57,350.42,349.97,14.19,0000 0000 0000 0000 000000
2015-04-11 04:39:46,0.12,1.91,0.00,24.45,27.00,29.55,4.87,27.40,1028.33,2033.03,2698.39,2798.08,3023.65,350.76,350.77,14.22,0000 0000 0000 0000 000000
2015-04-11 04:44:47,0.12,1.92,0.00,24.21,27.00,29.61,4.78,27.36,1028.33,2033.04,2697.04,2797.18,3022.71,350.09,350.20,14.25,0000 0000 0000 0000 000000
2015-04-11 04:49:49,0.13,1.92,0.00,24.10,26.99,29.59,4.86,27.30,1028.33,2033.07,2695.80,2796.39,3021.82,350.25,350.64,14.28,0000 0000 0000 0000 000000
2015-04-11 04:54:50,0.12,1.92,0.00,24.03,26.97,29.57,4.84,27.23,1028.33,2033.05,2694.50,2795.55,3020.85,350.68,351.08,14.31,0000 0000 0000 0000 000000
2015-04-11 04:59:51,0.12,1.93,0.00,24.03,26.96,29.54,4.81,27.13,1028.32,2033.08,2693.11,2794.68,3019.91,349.85,350.32,14.34,0000 0000 0000 0000 000000
2015-04-11 05:04:53,0.12,1.93,0.00,24.04,26.95,29.52,4.78,27.18,1028.29,2033.21,2691.89,2793.93,3019.00,349.92,350.40,14.37,0000 0000 0000 0000 000000
2015-04-11 05:09:54,0.17,1.94,0.00,24.00,26.93,29.50,4.75,26.98,1028.06,2033.41,2690.50,2793.05,3018.09,349.53,349.95,14.39,0000 0000 0000 0000 000000
2015-04-11 05:14:56,0.18,1.94,0.00,24.01,26.92,29.49,4.88,27.22,1027.86,2033.73,2689.14,2792.14,3017.20,350.38,350.60,14.42,0000 0000 0000 0000 000000
2015-04-11 05:19:57,0.15,1.95,0.00,24.02,26.90,29.46,4.85,27.26,1027.91,2033.91,2687.83,2791.33,3016.28,349.42,349.84,14.45,0000 0000 0000 0000 000000
2015-04-11 05:24:58,0.11,1.95,0.00,23.99,26.90,29.46,4.84,27.34,1027.90,2033.96,2686.79,2790.56,3015.36,350.10,350.56,14.48,0000 0000 0000 0000 000000
2015-04-11 05:30:00,0.12,1.95,0.00,24.05,26.87,29.45,4.82,27.13,1027.86,2033.97,2685.54,2789.75,3014.47,350.04,350.36,14.51,0000 0000 0000 0000 000000
2015-04-11 05:35:01,0.10,1.96,0.00,24.04,26.87,29.45,4.83,27.24,1027.85,2033.97,2684.26,2788.94,3013.54,350.06,350.39,14.54,0000 0000 0000 0000 000000
2015-04-11 05:40:02,0.13,1.96,0.00,24.04,26.85,29.46,4.77,27.39,1027.84,2033.98,2682.88,2788.07,3012.54,349.75,350.15,14.57,0000 0000 0000 0000 000000
2015-04-11 05:45:03,0.10,1.96,0.00,24.02,26.85,29.45,4.78,27.13,1027.85,2033.99,2681.78,2787.34,3011.86,349.65,349.96,14.60,0000 0000 0000 0000 000000
2015-04-11 05:50:05,0.12,1.97,0.00,24.04,26.83,29.44,4.80,27.35,1027.85,2033.99,2680.63,2786.57,3010.94,350.42,350.76,14.63,0000 0000 0000 0000 000000
2015-04-11 05:55:06,0.12,1.97,0.00,24.05,26.82,29.43,4.84,27.33,1027.84,2033.99,2679.34,2785.69,3010.01,350.10,350.07,14.66,0000 0000 0000 0000 000000
2015-04-11 06:00:07,0.10,1.98,0.00,24.05,26.82,29.43,4.78,27.26,1027.76,2034.01,2678.05,2784.98,3009.15,349.82,350.11,14.69,0000 0000 0000 0000 000000
2015-04-11 06:05:09,0.12,1.98,0.00,24.06,26.80,29.44,4.82,27.39,1027.73,2034.00,2676.93,2784.15,3008.24,349.38,349.79,14.72,0000 0000 0000 0000 000000
2015-04-11 06:10:11,0.13,1.98,0.00,24.11,26.80,29.43,4.78,27.23,1027.80,2034.01,2675.69,2783.42,3007.49,349.85,350.18,14.75,0000 0000 0000 0000 000000
2015-04-11 06:15:12,0.12,1.99,0.00,24.10,26.80,29.41,4.82,27.40,1027.77,2034.01,2674.39,2782.48,3006.58,350.23,350.03,14.78,0000 0000 0000 0000 000000
2015-04-11 06:20:13,0.19,1.99,0.00,24.10,26.79,29.43,4.84,27.18,1027.72,2034.01,2672.65,2781.08,3004.97,350.03,350.27,14.80,0000 0000 0000 0000 000000
2015-04-11 06:25:15,0.19,2.00,0.00,24.15,26.77,29.42,4.86,27.26,1027.50,2034.03,2670.83,2779.78,3003.55,350.63,350.62,14.83,0000 0000 0000 0000 000000
2015-04-11 06:30:16,0.18,2.00,0.00,24.16,26.77,29.43,4.80,27.14,1027.44,2034.09,2668.95,2778.59,3002.36,350.12,350.11,14.86,0000 0000 0000 0000 000000
2015-04-11 06:35:17,0.19,2.01,0.00,24.17,26.77,29.43,4.75,27.13,1027.63,2034.11,2667.04,2777.27,3000.98,349.96,350.06,14.89,0000 0000 0000 0000 000000
2015-04-11 06:40:18,0.22,2.01,0.00,24.17,26.77,29.44,4.74,27.15,1027.57,2034.13,2664.92,2775.81,2999.42,350.37,350.30,14.92,0000 0000 0000 0000 000000
2015-04-11 06:45:20,0.17,2.02,0.00,24.20,26.77,29.43,4.76,27.30,1027.65,2034.43,2663.55,2774.92,2998.39,349.86,349.81,14.95,0000 0000 0000 0000 000000
2015-04-11 06:50:21,0.12,2.02,0.00,24.24,26.76,29.47,4.73,27.19,1027.80,2034.57,2662.43,2774.07,2997.55,349.73,349.75,14.98,0000 0000 0000 0000 000000
2015-04-11 06:55:22,0.17,2.03,0.00,24.25,26.75,29.45,4.75,27.23,1027.73,2034.81,2661.25,2773.28,2996.73,349.96,350.01,15.01,0000 0000 0000 0000 000000
2015-04-11 07:00:24,0.11,2.03,0.00,24.28,26.75,29.48,4.73,27.23,1027.61,2034.82,2660.01,2772.54,2995.78,349.95,349.98,15.04,0000 0000 0000 0000 000000
2015-04-11 07:05:25,0.16,2.04,0.00,24.31,26.75,29.46,4.86,27.21,1027.59,2034.74,2658.55,2771.50,2994.62,350.66,350.46,15.07,0000 0000 0000 0000 000000
2015-04-11 07:10:26,0.16,2.04,0.00,24.32,26.75,29.47,4.81,27.26,1027.51,2034.77,2656.71,2770.15,2993.19,349.98,349.95,15.10,0000 0000 0000 0000 000000
2015-04-11 07:15:28,0.14,2.05,0.00,24.34,26.75,29.49,4.75,27.06,1027.43,2034.74,2655.05,2769.03,2991.97,349.31,349.14,15.13,0000 0000 0000 0000 000000
2015-04-11 07:20:29,0.15,2.05,0.00,24.38,26.75,29.47,4.85,27.23,1027.39,2034.72,2653.59,2768.07,2990.87,349.77,349.67,15.16,0000 0000 0000 0000 000000
2015-04-11 07:25:30,0.17,2.06,0.00,24.40,26.75,29.49,4.81,27.31,1027.38,2034.88,2652.13,2767.14,2989.83,349.87,349.44,15.19,0000 0000 0000 0000 000000
2015-04-11 07:30:31,0.14,2.06,0.00,24.41,26.75,29.48,4.85,27.17,1027.39,2034.88,2650.70,2766.13,2988.73,350.56,350.22,15.21,0000 0000 0000 0000 000000
2015-04-11 07:35:33,0.13,2.06,0.00,24.44,26.75,29.47,4.80,27.15,1027.41,2034.87,2649.31,2765.15,2987.69,349.87,349.49,15.24,0000 0000 0000 0000 000000
2015-04-11 07:40:34,0.12,2.07,0.00,24.46,26.75,29.49,4.69,27.16,1027.41,2034.78,2647.97,2764.27,2986.69,349.33,348.99,15.27,0000 0000 0000 0000 000000
2015-04-11 07:45:35,0.13,2.07,0.00,24.50,26.75,29.49,4.75,26.96,1027.39,2034.81,2646.69,2763.43,2985.74,349.85,349.55,15.30,0000 0000 0000 0000 000000
2015-04-11 07:50:36,0.13,2.07,0.00,24.52,26.75,29.49,4.78,27.43,1027.38,2034.81,2645.36,2762.52,2984.71,350.62,350.10,15.33,0000 0000 0000 0000 000000
2015-04-11 07:55:38,0.10,2.08,0.00,24.53,26.75,29.50,4.78,27.04,1027.37,2034.73,2644.00,2761.66,2983.78,349.71,349.32,15.36,0000 0000 0000 0000 000000
2015-04-11 08:00:39,0.15,2.08,0.00,24.56,26.75,29.48,4.74,27.27,1027.36,2034.69,2642.67,2760.76,2982.78,349.54,349.07,15.39,0000 0000 0000 0000 000000
2015-04-11 08:05:40,0.10,2.09,0.00,24.59,26.76,29.46,4.82,27.23,1027.36,2034.57,2641.28,2759.68,2981.65,350.17,349.58,15.42,0000 0000 0000 0000 000000
2015-04-11 08:10:42,0.13,2.09,0.00,24.63,26.77,29.46,4.81,27.24,1027.36,2034.38,2639.67,2758.49,2980.43,350.62,350.13,15.45,0000 0000 0000 0000 000000
2015-04-11 08:15:43,0.20,2.09,0.00,24.66,26.77,29.47,4.78,27.23,1027.36,2034.35,2637.91,2757.25,2978.95,349.83,349.11,15.48,0000 0000 0000 0000 000000
2015-04-11 08:20:44,0.30,2.10,0.00,24.68,26.77,29.49,4.72,27.16,1027.36,2034.31,2635.32,2755.26,2976.86,349.67,348.94,15.51,0000 0000 0000 0000 000000
2015-04-11 08:25:46,0.24,2.11,0.00,24.67,26.78,29.49,4.83,27.23,1027.36,2034.17,2632.58,2753.24,2974.60,350.52,349.90,15.54,0000 0000 0000 0000 000000
2015-04-11 08:30:47,0.19,2.12,0.00,24.69,26.80,29.53,4.78,27.30,1027.36,2034.12,2630.59,2751.74,2972.95,349.41,348.82,15.57,0000 0000 0000 0000 000000
2015-04-11 08:35:48,0.19,2.12,0.00,24.73,26.80,29.55,4.75,27.18,1027.36,2034.10,2628.69,2750.53,2971.49,350.03,349.52,15.60,0000 0000 0000 0000 000000
2015-04-11 08:40:49,0.26,2.13,0.00,24.75,26.81,29.57,4.75,27.29,1027.33,2034.03,2626.18,2748.68,2969.43,349.79,349.18,15.62,0000 0000 0000 0000 000000
2015-04-11 08:45:50,0.25,2.14,0.00,24.74,26.82,29.59,4.74,27.15,1027.11,2034.02,2623.89,2746.92,2967.54,350.12,349.26,15.65,0000 0000 0000 0000 000000
2015-04-11 08:50:51,0.24,2.14,0.00,24.76,26.82,29.64,4.78,27.07,1027.09,2034.02,2621.62,2745.17,2965.59,350.53,349.51,15.68,0000 0000 0000 0000 000000
2015-04-11 08:55:53,0.22,2.15,0.00,24.76,26.84,29.65,4.78,27.05,1027.12,2034.00,2619.50,2743.61,2963.86,350.28,349.45,15.71,0000 0000 0000 0000 000000
2015-04-11 09:00:54,0.19,2.16,0.00,24.76,26.85,29.64,4.80,27.23,1026.99,2034.00,2617.55,2742.14,2962.34,350.60,349.79,15.74,0000 0000 0000 0000 000000
2015-04-11 09:05:56,0.21,2.16,0.00,24.79,26.85,29.65,4.78,27.23,1027.04,2034.00,2615.64,2740.73,2960.76,350.02,349.42,15.77,0000 0000 0000 0000 000000
2015-04-11 09:10:57,0.23,2.17,0.00,24.77,26.87,29.65,4.80,27.32,1026.99,2034.00,2613.44,2739.12,2959.04,349.76,348.83,15.80,0000 0000 0000 0000 000000
2015-04-11 09:15:58,0.23,2.18,0.00,24.76,26.87,29.67,4.72,27.01,1026.91,2034.00,2611.26,2737.51,2957.29,350.17,349.30,15.83,0000 0000 0000 0000 000000
2015-04-11 09:21:00,0.20,2.18,0.00,24.75,26.87,29.67,4.72,27.09,1026.89,2034.00,2609.26,2736.07,2955.64,349.72,349.03,15.86,0000 0000 0000 0000 000000
2015-04-11 09:26:01,0.16,2.19,0.00,24.75,26.87,29.65,4.75,27.23,1026.88,2034.00,2607.70,2734.92,2954.39,349.72,349.04,15.89,0000 0000 0000 0000 000000
2015-04-11 09:31:02,0.17,2.19,0.00,24.73,26.87,29.63,4.75,27.01,1026.87,2033.99,2606.04,2733.79,2953.25,349.63,348.79,15.92,0000 0000 0000 0000 000000
2015-04-11 09:36:04,0.13,2.20,0.00,24.75,26.87,29.63,4.77,27.13,1026.87,2033.99,2604.55,2732.85,2952.23,349.30,348.44,15.95,0000 0000 0000 0000 000000
2015-04-11 09:41:05,0.13,2.20,0.00,24.72,26.87,29.61,4.69,27.08,1026.87,2033.99,2603.13,2731.89,2951.13,349.70,348.76,15.98,0000 0000 0000 0000 000000
2015-04-11 09:46:06,0.14,2.21,0.00,24.72,26.86,29.61,4.79,27.13,1026.87,2033.99,2601.75,2730.96,2950.17,350.21,349.48,16.01,0000 0000 0000 0000 000000
2015-04-11 09:51:08,0.13,2.21,0.00,24.75,26.85,29.60,4.79,27.11,1026.87,2033.99,2600.50,2730.09,2949.19,350.17,349.43,16.03,0000 0000 0000 0000 000000
2015-04-11 09:56:09,0.13,2.21,0.00,24.76,26.85,29.57,4.77,27.06,1026.86,2033.99,2599.34,2729.23,2948.26,350.06,349.19,16.06,0000 0000 0000 0000 000000
2015-04-11 10:01:10,0.14,2.22,0.00,24.76,26.85,29.57,4.78,27.15,1026.86,2033.99,2598.00,2728.36,2947.26,350.18,349.37,16.09,0000 0000 0000 0000 000000
2015-04-11 10:06:12,0.14,2.22,0.00,24.75,26.85,29.54,4.80,27.31,1026.81,2033.99,2596.70,2727.46,2946.26,350.19,349.25,16.12,0000 0000 0000 0000 000000
2015-04-11 10:11:13,0.12,2.22,0.00,24.74,26.85,29.55,4.83,27.18,1026.74,2033.99,2595.65,2726.62,2945.24,349.80,348.93,16.15,0000 0000 0000 0000 000000
2015-04-11 10:16:14,0.12,2.23,0.00,24.73,26.85,29.54,4.73,27.21,1026.70,2033.99,2594.38,2725.76,2944.26,350.17,349.26,16.18,0000 0000 0000 0000 000000
2015-04-11 10:21:15,0.10,2.23,0.00,24.73,26.85,29.53,4.81,27.13,1026.81,2033.99,2593.18,2724.96,2943.40,350.37,349.53,16.21,0000 0000 0000 0000 000000
2015-04-11 10:26:16,0.12,2.24,0.00,24.72,26.85,29.53,4.75,27.08,1026.71,2033.99,2592.11,2724.11,2942.49,349.97,349.24,16.24,0000 0000 0000 0000 000000
2015-04-11 10:31:18,0.14,2.24,0.00,24.72,26.85,29.52,4.81,27.13,1026.62,2033.99,2590.78,2723.21,2941.52,350.23,349.02,16.27,0000 0000 0000 0000 000000
2015-04-11 10:36:19,0.14,2.24,0.00,24.74,26.84,29.56,4.78,27.28,1026.47,2033.98,2589.41,2722.30,2940.49,350.08,349.08,16.30,0000 0000 0000 0000 000000
2015-04-11 10:41:20,0.13,2.25,0.00,24.73,26.84,29.57,4.75,27.11,1026.48,2033.98,2588.12,2721.36,2939.42,349.72,348.74,16.33,0000 0000 0000 0000 000000
2015-04-11 10:46:22,0.14,2.25,0.00,24.70,26.84,29.57,4.76,27.19,1026.40,2033.97,2586.86,2720.51,2938.43,349.67,348.72,16.36,0000 0000 0000 0000 000000
2015-04-11 10:51:23,0.12,2.26,0.00,24.68,26.84,29.57,4.84,27.02,1026.38,2033.99,2585.50,2719.71,2937.57,350.17,349.33,16.39,0000 0000 0000 0000 000000
2015-04-11 10:56:24,0.12,2.26,0.00,24.65,26.84,29.59,4.71,27.15,1026.38,2033.98,2584.34,2718.80,2936.63,349.98,349.00,16.42,0000 0000 0000 0000 000000
2015-04-11 11:01:26,0.11,2.26,0.00,24.60,26.84,29.60,4.78,27.24,1026.39,2033.97,2583.09,2717.93,2935.72,349.89,349.05,16.44,0000 0000 0000 0000 000000
2015-04-11 11:06:27,0.13,2.27,0.00,24.57,26.83,29.62,4.72,27.08,1026.38,2033.97,2581.89,2717.08,2934.75,349.47,348.59,16.47,0000 0000 0000 0000 000000
2015-04-11 11:11:29,0.13,2.27,0.00,24.58,26.83,29.60,4.85,27.15,1026.38,2033.96,2580.64,2716.20,2933.82,350.16,349.33,16.50,0000 0000 0000 0000 000000
2015-04-11 11:16:30,0.12,2.27,0.00,24.57,26.83,29.62,4.81,27.18,1026.34,2033.98,2579.57,2715.49,2932.89,350.43,349.73,16.53,0000 0000 0000 0000 000000
2015-04-11 11:21:31,0.11,2.28,0.00,24.54,26.82,29.63,4.72,27.14,1026.15,2033.97,2578.39,2714.70,2932.03,349.92,349.07,16.56,0000 0000 0000 0000 000000
2015-04-11 11:26:32,0.10,2.28,0.00,24.51,26.82,29.60,4.78,27.25,1025.93,2033.97,2577.24,2713.92,2931.16,349.11,348.19,16.59,0000 0000 0000 0000 000000
2015-04-11 11:31:34,0.11,2.28,0.00,24.47,26.82,29.61,4.79,27.18,1025.92,2033.95,2576.06,2713.08,2930.15,349.56,348.71,16.62,0000 0000 0000 0000 000000
2015-04-11 11:36:35,0.12,2.29,0.00,24.47,26.82,29.63,4.82,27.28,1025.93,2033.96,2574.96,2712.29,2929.44,350.00,348.99,16.65,0000 0000 0000 0000 000000
2015-04-11 11:41:36,0.13,2.29,0.00,24.46,26.82,29.62,4.70,26.96,1025.92,2033.97,2573.81,2711.66,2928.61,349.53,348.71,16.68,0000 0000 0000 0000 000000
2015-04-11 11:46:37,0.08,2.29,0.00,24.44,26.82,29.61,4.81,27.18,1025.90,2033.97,2572.61,2710.89,2927.89,349.51,348.62,16.71,0000 0000 0000 0000 000000
2015-04-11 11:51:39,0.12,2.30,0.00,24.41,26.81,29.61,4.73,27.18,1025.90,2033.97,2571.48,2710.07,2927.01,349.94,349.14,16.74,0000 0000 0000 0000 000000
2015-04-11 11:56:40,0.11,2.30,0.00,24.39,26.80,29.61,4.80,27.12,1025.90,2033.98,2570.59,2709.37,2926.11,350.13,349.45,16.77,0000 0000 0000 0000 000000
2015-04-11 12:01:41,0.11,2.30,0.00,24.38,26.80,29.61,4.84,27.24,1025.89,2033.96,2569.44,2708.69,2925.29,350.51,349.82,16.80,0000 0000 0000 0000 000000
2015-04-11 12:06:43,0.10,2.31,0.00,24.36,26.80,29.63,4.79,27.27,1025.77,2033.98,2568.39,2707.93,2924.38,350.18,349.29,16.83,0000 0000 0000 0000 000000
2015-04-11 12:11:44,0.11,2.31,0.00,24.35,26.80,29.63,4.79,27.24,1025.64,2033.99,2567.19,2707.09,2923.67,349.83,349.01,16.85,0000 0000 0000 0000 000000
2015-04-11 12:16:46,0.10,2.31,0.00,24.31,26.79,29.62,4.80,27.16,1025.43,2033.99,2566.30,2706.51,2922.96,350.22,349.39,16.88,0000 0000 0000 0000 000000
2015-04-11 12:21:47,0.08,2.32,0.00,24.26,26.77,29.62,4.76,27.13,1025.43,2033.98,2565.33,2705.92,2922.09,349.83,349.16,16.91,0000 0000 0000 0000 000000
2015-04-11 12:26:48,0.11,2.32,0.00,24.28,26.77,29.61,4.74,27.15,1025.41,2033.95,2564.37,2705.09,2921.18,349.42,348.88,16.94,0000 0000 0000 0000 000000
2015-04-11 12:31:49,0.13,2.32,0.00,24.27,26.77,29.61,4.80,27.20,1025.42,2033.97,2563.30,2704.32,2920.36,349.69,348.94,16.97,0000 0000 0000 0000 000000
2015-04-11 12:36:50,0.09,2.33,0.00,24.24,26.76,29.60,4.73,27.27,1025.41,2033.95,2562.11,2703.69,2919.65,350.41,349.64,17.00,0000 0000 0000 0000 000000
2015-04-11 12:41:52,0.09,2.33,0.00,24.22,26.75,29.58,4.73,27.27,1025.41,2033.91,2560.97,2702.96,2918.78,349.75,349.10,17.03,0000 0000 0000 0000 000000
2015-04-11 12:46:53,0.12,2.33,0.00,24.19,26.75,29.57,4.82,27.39,1025.41,2033.96,2560.01,2702.17,2918.04,349.50,348.93,17.06,0000 0000 0000 0000 000000
2015-04-11 12:51:55,0.10,2.34,0.00,24.18,26.74,29.59,4.74,27.14,1025.41,2033.97,2559.08,2701.69,2917.28,349.59,348.88,17.09,0000 0000 0000 0000 000000
2015-04-11 12:56:56,0.08,2.34,0.00,24.13,26.72,29.59,4.75,27.07,1025.41,2033.98,2558.28,2701.02,2916.75,349.97,349.55,17.12,0000 0000 0000 0000 000000
2015-04-11 13:01:57,0.11,2.34,0.00,24.10,26.72,29.55,4.83,27.27,1025.38,2033.99,2557.20,2700.24,2916.00,349.82,349.01,17.15,0000 0000 0000 0000 000000